Location: Newark
(44.3681°N, 100.3364°W)
Time: 09:46:45
(UTC+00:00)

deb Explorer IX - Pass Details

Date: 27 February 2020
Orbit: 548 x 1100 km, 38.8° (Epoch: 07 April)

Event Time Altitude Azimuth Distance (km) Brightness Sun altitude
Rises 17:24:10 0° 260° (W) 2,986 ? 33.5°
Reaches altitude 10° 17:26:44 10° 253° (WSW) 1,996 ? 33.7°
Maximum altitude 17:30:59 40° 184° (S) 866 ? 34.0°
Drops below altitude 10° 17:34:53 10° 114° (ESE) 1,832 ? 34.3°
Sets 17:37:09 0° 107° (ESE) 2,707 ? 34.5°
